User: anonymous   Login
Location: *
(48.7358°N, 0.3111°E)
Time: 07:54:05
(UTC+00:00)
Language:

COSMOS 2428 - Orbit

View from above orbital plane
View from above orbital plane
View from above satellite
View from above satellite

Ground track
Ground track

The orbit data is extracted from the following two-line orbital elements,

1 31792U 07029A   19348.15842503 -.00000224  00000-0 -95485-4 0  9998
2 31792  70.9297 304.0501 0010186 339.3956  20.6752 14.12409924642566
Epoch (UTC): 14 December 2019 03:48:07
Eccentricity: 0.0010186
inclination: 70.9297°
perigee height: 844 km
apogee height: 858 km
right ascension of ascending node: 304.0501°
argument of perigee: 339.3956°
revolutions per day: 14.12409924
mean anomaly at epoch: 20.6752°
orbit number at epoch: 64256

The dashed part of the orbit path shows where the satellite is in the earth's shadow,  

DLR